Terminal Aerodrome Forecast
Issued by NWS Louisville, KY

Home | Current Version | Previous Version | Text Only | Print | Product List | Glossary On
Versions: 1 2 3 4 5 6 7 8 9 10 11 12 13 14 15 16 17 18 19 20 21 22 23
000
FTUS43 KLMK 161100
TAFLEX
TAF
KLEX 161139Z 1612/1712 35005KT 5SM BR OVC006
      TEMPO 1612/1614 2SM BR OVC003
     FM161400 01006KT P6SM OVC010
     FM161600 02006KT P6SM BKN025
     FM162100 01005KT P6SM SCT035=

USA.gov is the U.S. government's official web portal to all federal, state and local government web resources and services.